Tracking 29606 objects as of 19-Sep-2024
HD Live streaming from Space Station
objects crossing your sky now

STARLINK-3852

Track STARLINK-3852 now!
10-day predictions
STARLINK-3852 is classified as:


NORAD ID: 52345
Int'l Code: 2022-045Q
Perigee: 546.0 km
Apogee: 547.8 km
Inclination: 53.2 °
Period: 95.4 minutes
Semi major axis: 6917 km
RCS: Unknown
Launch date: April 29, 2022
Source: United States (US)
Launch site: AIR FORCE EASTERN TEST RANGE (AFETR)
Your satellite tracking list
Your tracking list is empty




NASA's NSSDC Master Catalog

Two Line Element Set (TLE):
1 52345U 22045Q   24262.53444813  .00002219  00000-0  15748-3 0  9992
2 52345  53.2151  90.6568 0001326 145.1106 214.9973 15.08829123134677
Source of the keplerian elements: AFSPC